period_start,C,m1,H,J0,J1,J2,J3,J4,J5,JA,JB,JC,JD,JJ,JK,JN,#
2015-07-06 00:00:05,0.00,0.13,0.00,27.73,31.84,34.28,4.67,26.82,1007.36,2017.99,3390.00,3249.99,3530.98,349.33,338.46,9.44,0000 0000 0000 0000 000000
2015-07-06 00:05:06,0.00,0.13,0.00,27.72,31.82,34.24,4.61,26.82,1007.41,2017.99,3390.04,3249.99,3530.99,349.69,338.94,9.47,0000 0000 0000 0000 000000
2015-07-06 00:10:07,-0.00,0.13,0.00,27.72,31.80,34.25,4.63,26.73,1007.61,2017.99,3390.24,3250.01,3530.99,349.86,338.98,9.50,0000 0000 0000 0000 000000
2015-07-06 00:15:08,-0.01,0.13,0.00,27.70,31.79,34.21,4.67,26.86,1007.79,2018.01,3390.41,3250.04,3531.02,350.25,339.36,9.53,0000 0000 0000 0000 000000
2015-07-06 00:20:09,-0.02,0.13,0.00,27.69,31.77,34.21,4.63,26.89,1007.82,2018.02,3390.91,3250.28,3531.06,349.80,338.99,9.55,0000 0000 0000 0000 000000
2015-07-06 00:25:11,-0.00,0.13,0.00,27.68,31.75,34.22,4.71,26.75,1007.84,2018.02,3390.75,3250.33,3531.18,350.50,339.81,9.58,0000 0000 0000 0000 000000
2015-07-06 00:30:12,-0.02,0.13,0.00,27.67,31.74,34.16,4.70,26.74,1008.11,2018.10,3390.79,3250.69,3531.67,349.85,339.28,9.61,0000 0000 0000 0000 000000
2015-07-06 00:35:13,0.04,0.13,0.00,27.66,31.72,34.15,4.68,26.56,1008.21,2018.28,3390.90,3250.83,3531.77,350.27,339.70,9.64,0000 0000 0000 0000 000000
2015-07-06 00:40:14,0.00,0.13,0.00,27.65,31.71,34.17,4.69,26.96,1007.93,2018.40,3390.76,3250.83,3531.84,349.98,339.19,9.67,0000 0000 0000 0000 000000
2015-07-06 00:45:15,0.04,0.13,0.00,27.63,31.70,34.14,4.64,26.75,1007.85,2018.78,3390.96,3250.94,3531.95,349.56,338.97,9.70,0000 0000 0000 0000 000000
2015-07-06 00:50:17,0.01,0.13,0.00,27.62,31.67,34.14,4.67,26.98,1007.80,2018.89,3390.97,3250.98,3531.98,350.12,339.56,9.73,0000 0000 0000 0000 000000
2015-07-06 00:55:18,0.01,0.13,0.00,27.61,31.66,34.12,4.66,26.98,1007.67,2018.96,3390.97,3250.98,3531.96,350.22,339.62,9.76,0000 0000 0000 0000 000000
2015-07-06 01:00:20,0.00,0.13,0.00,27.60,31.65,34.11,4.67,27.13,1007.69,2018.98,3390.98,3250.98,3531.95,349.86,339.31,9.79,0000 0000 0000 0000 000000
2015-07-06 01:05:21,0.00,0.13,0.00,27.57,31.63,34.07,4.72,27.17,1007.85,2018.98,3390.96,3250.93,3531.91,350.52,339.95,9.82,0000 0000 0000 0000 000000
2015-07-06 01:10:22,-0.00,0.13,0.00,27.56,31.62,34.07,4.71,26.99,1008.18,2018.99,3390.97,3250.91,3531.90,350.18,339.79,9.85,0000 0000 0000 0000 000000
2015-07-06 01:15:24,-0.00,0.13,0.00,27.55,31.60,34.03,4.64,26.97,1008.30,2018.99,3390.97,3250.96,3531.94,350.04,339.84,9.88,0000 0000 0000 0000 000000
2015-07-06 01:20:25,0.00,0.13,0.00,27.53,31.59,34.04,4.59,27.07,1008.28,2018.99,3390.98,3250.98,3531.97,349.71,339.36,9.91,0000 0000 0000 0000 000000
2015-07-06 01:25:27,0.00,0.13,0.00,27.52,31.57,34.02,4.69,26.97,1008.32,2018.99,3390.99,3250.99,3531.98,349.91,339.60,9.94,0000 0000 0000 0000 000000
2015-07-06 01:30:28,0.00,0.13,0.00,27.50,31.56,34.02,4.63,27.22,1008.27,2019.00,3390.99,3250.99,3531.99,349.45,339.33,9.96,0000 0000 0000 0000 000000
2015-07-06 01:35:30,0.00,0.13,0.00,27.48,31.55,34.01,4.65,26.97,1008.18,2019.02,3390.99,3250.99,3531.98,349.91,339.60,9.99,0000 0000 0000 0000 000000
2015-07-06 01:40:31,0.01,0.13,0.00,27.46,31.52,33.96,4.69,26.93,1008.32,2019.02,3390.88,3250.93,3531.72,350.42,340.10,10.02,0000 0000 0000 0000 000000
2015-07-06 01:45:32,-0.01,0.13,0.00,27.45,31.51,33.96,4.71,26.79,1008.33,2019.03,3390.97,3250.98,3531.92,350.07,339.93,10.05,0000 0000 0000 0000 000000
2015-07-06 01:50:34,0.02,0.13,0.00,27.44,31.50,33.95,4.68,26.84,1008.59,2019.13,3390.98,3250.99,3531.99,350.27,340.24,10.08,0000 0000 0000 0000 000000
2015-07-06 01:55:35,0.05,0.13,0.00,27.42,31.48,33.93,4.69,27.01,1008.45,2019.44,3390.99,3250.99,3531.99,350.17,340.13,10.11,0000 0000 0000 0000 000000
2015-07-06 02:00:36,0.03,0.14,0.00,27.41,31.46,33.91,4.69,27.13,1008.22,2019.71,3390.98,3250.98,3531.98,349.94,339.79,10.14,0000 0000 0000 0000 000000
2015-07-06 02:05:37,0.02,0.14,0.00,27.38,31.45,33.88,4.67,27.12,1007.96,2019.86,3390.99,3250.99,3531.98,349.63,339.33,10.17,0000 0000 0000 0000 000000
2015-07-06 02:10:39,0.01,0.14,0.00,27.36,31.43,33.89,4.60,27.08,1007.86,2019.95,3390.99,3250.99,3531.99,349.46,339.37,10.20,0000 0000 0000 0000 000000
2015-07-06 02:15:40,0.00,0.14,0.00,27.35,31.41,33.87,4.65,26.92,1007.83,2019.98,3390.99,3250.99,3531.99,350.12,339.77,10.23,0000 0000 0000 0000 000000
2015-07-06 02:20:41,0.00,0.14,0.00,27.33,31.40,33.84,4.59,27.02,1008.10,2019.99,3390.99,3250.99,3531.99,349.75,339.55,10.26,0000 0000 0000 0000 000000
2015-07-06 02:25:42,0.00,0.14,0.00,27.31,31.38,33.81,4.64,27.11,1008.29,2019.99,3390.99,3251.00,3531.99,349.87,339.75,10.29,0000 0000 0000 0000 000000
2015-07-06 02:30:43,0.00,0.14,0.00,27.30,31.37,33.82,4.67,27.00,1008.31,2019.99,3390.99,3251.03,3532.00,350.04,339.86,10.32,0000 0000 0000 0000 000000
2015-07-06 02:35:44,0.00,0.14,0.00,27.27,31.35,33.78,4.67,26.98,1008.33,2019.99,3390.99,3251.00,3532.00,349.97,339.79,10.35,0000 0000 0000 0000 000000
2015-07-06 02:40:46,0.00,0.14,0.00,27.25,31.33,33.78,4.65,27.18,1008.30,2020.00,3390.99,3251.00,3532.00,350.59,340.46,10.37,0000 0000 0000 0000 000000
2015-07-06 02:45:47,0.00,0.14,0.00,27.24,31.32,33.78,4.65,26.94,1008.30,2020.01,3390.99,3251.00,3531.99,349.94,339.93,10.40,0000 0000 0000 0000 000000
2015-07-06 02:50:48,0.00,0.14,0.00,27.21,31.30,33.73,4.68,27.22,1007.97,2020.03,3390.99,3251.01,3531.99,350.50,340.43,10.43,0000 0000 0000 0000 000000
2015-07-06 02:55:49,0.01,0.14,0.00,27.19,31.28,33.74,4.68,27.43,1007.83,2020.10,3390.99,3251.00,3531.98,349.41,339.30,10.46,0000 0000 0000 0000 000000
2015-07-06 03:00:50,0.05,0.14,0.00,27.17,31.26,33.70,4.70,27.17,1007.86,2020.29,3390.99,3250.96,3531.89,350.28,340.18,10.49,0000 0000 0000 0000 000000
2015-07-06 03:05:52,0.06,0.14,0.00,27.14,31.25,33.70,4.72,27.05,1007.85,2020.59,3390.98,3250.72,3531.30,350.69,340.58,10.52,0000 0000 0000 0000 000000
2015-07-06 03:10:52,0.07,0.14,0.00,27.12,31.22,33.68,4.70,27.05,1007.90,2020.80,3390.85,3250.09,3531.04,350.07,339.86,10.55,0000 0000 0000 0000 000000
2015-07-06 03:15:54,0.01,0.14,0.00,27.10,31.21,33.66,4.64,27.19,1007.86,2020.95,3390.93,3250.03,3531.00,349.73,339.76,10.58,0000 0000 0000 0000 000000
2015-07-06 03:20:55,0.07,0.14,0.00,27.07,31.19,33.65,4.69,27.41,1007.84,2020.98,3390.43,3249.68,3530.58,350.45,340.49,10.61,0000 0000 0000 0000 000000
2015-07-06 03:25:56,0.02,0.15,0.00,27.05,31.17,33.64,4.63,27.16,1007.85,2020.99,3390.01,3249.03,3530.02,349.51,339.51,10.64,0000 0000 0000 0000 000000
2015-07-06 03:30:57,0.00,0.15,0.00,27.02,31.15,33.61,4.70,27.14,1007.95,2020.99,3390.00,3249.00,3529.98,350.07,340.04,10.67,0000 0000 0000 0000 000000
2015-07-06 03:35:58,0.00,0.15,0.00,26.99,31.12,33.59,4.69,27.13,1008.10,2020.99,3390.00,3248.94,3529.91,350.08,340.30,10.70,0000 0000 0000 0000 000000
2015-07-06 03:40:59,0.01,0.15,0.00,26.96,31.10,33.60,4.73,27.26,1008.28,2020.99,3389.96,3248.87,3529.86,350.39,340.65,10.73,0000 0000 0000 0000 000000
2015-07-06 03:46:01,0.02,0.15,0.00,26.94,31.09,33.58,4.71,27.16,1008.35,2021.02,3389.97,3248.72,3529.73,350.22,340.54,10.76,0000 0000 0000 0000 000000
2015-07-06 03:51:02,0.03,0.15,0.00,26.91,31.06,33.55,4.77,27.12,1008.46,2021.04,3389.95,3248.24,3529.19,350.78,341.18,10.78,0000 0000 0000 0000 000000
2015-07-06 03:56:04,0.01,0.15,0.00,26.87,31.04,33.53,4.71,26.98,1008.52,2021.22,3389.97,3248.37,3529.39,350.89,341.07,10.81,0000 0000 0000 0000 000000
2015-07-06 04:01:06,0.02,0.15,0.00,26.85,31.02,33.49,4.67,27.22,1008.52,2021.58,3389.99,3248.82,3529.85,349.52,340.02,10.84,0000 0000 0000 0000 000000
2015-07-06 04:06:07,0.04,0.15,0.00,26.83,31.00,33.48,4.69,27.03,1008.78,2021.87,3389.99,3248.85,3529.85,349.90,340.47,10.87,0000 0000 0000 0000 000000
2015-07-06 04:11:08,0.00,0.15,0.00,26.81,30.97,33.47,4.68,27.18,1008.80,2021.95,3389.99,3248.94,3529.94,350.03,340.60,10.90,0000 0000 0000 0000 000000
2015-07-06 04:16:10,0.00,0.15,0.00,26.79,30.95,33.44,4.69,27.34,1008.77,2021.98,3389.99,3248.98,3529.98,350.28,340.95,10.93,0000 0000 0000 0000 000000
2015-07-06 04:21:11,0.00,0.15,0.00,26.76,30.93,33.41,4.74,27.05,1008.81,2021.99,3390.00,3248.99,3529.98,350.30,341.07,10.96,0000 0000 0000 0000 000000
2015-07-06 04:26:12,0.00,0.15,0.00,26.74,30.91,33.39,4.68,27.11,1008.95,2021.99,3390.04,3248.99,3529.99,349.87,340.47,10.99,0000 0000 0000 0000 000000
2015-07-06 04:31:13,0.00,0.15,0.00,26.71,30.88,33.37,4.62,27.20,1008.78,2021.99,3390.05,3248.98,3529.99,349.69,340.24,11.02,0000 0000 0000 0000 000000
2015-07-06 04:36:15,0.01,0.15,0.00,26.68,30.86,33.35,4.66,27.16,1008.81,2022.02,3390.01,3248.98,3529.99,349.60,340.22,11.05,0000 0000 0000 0000 000000
2015-07-06 04:41:16,0.03,0.15,0.00,26.66,30.84,33.34,4.65,27.39,1008.77,2022.05,3390.00,3248.74,3529.84,350.19,340.98,11.08,0000 0000 0000 0000 000000
2015-07-06 04:46:17,0.06,0.15,0.00,26.64,30.81,33.30,4.70,27.07,1008.81,2022.28,3390.00,3248.42,3529.55,350.13,340.87,11.11,0000 0000 0000 0000 000000
2015-07-06 04:51:19,0.08,0.16,0.00,26.62,30.79,33.28,4.72,27.22,1008.80,2022.68,3389.99,3248.01,3529.02,349.75,340.68,11.14,0000 0000 0000 0000 000000
2015-07-06 04:56:20,0.02,0.16,0.00,26.59,30.77,33.25,4.68,27.23,1008.76,2022.92,3389.97,3248.00,3529.01,350.30,341.32,11.17,0000 0000 0000 0000 000000
2015-07-06 05:01:22,0.00,0.16,0.00,26.57,30.74,33.24,4.68,27.43,1008.66,2022.93,3389.87,3248.00,3529.00,349.83,340.70,11.19,0000 0000 0000 0000 000000
2015-07-06 05:06:23,0.01,0.16,0.00,26.55,30.72,33.22,4.69,27.18,1008.77,2022.98,3389.82,3247.99,3529.00,350.60,341.38,11.22,0000 0000 0000 0000 000000
2015-07-06 05:11:24,0.01,0.16,0.00,26.52,30.70,33.20,4.64,27.35,1008.81,2022.99,3389.61,3247.98,3528.99,349.41,340.69,11.25,0000 0000 0000 0000 000000
2015-07-06 05:16:26,0.00,0.16,0.00,26.49,30.67,33.17,4.69,27.07,1008.98,2023.00,3389.71,3247.97,3528.98,349.95,340.88,11.28,0000 0000 0000 0000 000000
2015-07-06 05:21:27,0.02,0.16,0.00,26.47,30.65,33.14,4.68,27.25,1008.99,2023.01,3389.35,3247.88,3528.95,349.95,341.01,11.31,0000 0000 0000 0000 000000
2015-07-06 05:26:28,0.03,0.16,0.00,26.45,30.62,33.12,4.67,27.35,1008.98,2023.22,3389.73,3247.96,3528.97,349.75,340.93,11.34,0000 0000 0000 0000 000000
2015-07-06 05:31:29,0.04,0.16,0.00,26.42,30.60,33.11,4.75,27.27,1009.21,2023.50,3389.54,3247.91,3528.97,349.95,341.06,11.37,0000 0000 0000 0000 000000
2015-07-06 05:36:31,0.05,0.16,0.00,26.40,30.57,33.06,4.75,27.29,1009.22,2023.89,3389.68,3247.96,3528.98,350.50,341.61,11.40,0000 0000 0000 0000 000000
2015-07-06 05:41:32,0.02,0.16,0.00,26.39,30.55,33.05,4.71,27.57,1009.42,2023.96,3389.21,3247.87,3528.94,350.19,341.44,11.43,0000 0000 0000 0000 000000
2015-07-06 05:46:33,-0.01,0.16,0.00,26.36,30.52,33.02,4.67,27.40,1009.72,2023.99,3389.30,3247.95,3528.97,349.96,341.37,11.46,0000 0000 0000 0000 000000
2015-07-06 05:51:34,0.01,0.16,0.00,26.35,30.50,33.02,4.72,27.23,1009.79,2023.99,3389.11,3247.78,3528.89,350.60,341.80,11.49,0000 0000 0000 0000 000000
2015-07-06 05:56:35,0.01,0.16,0.00,26.33,30.48,32.97,4.70,27.18,1009.81,2024.00,3389.09,3247.87,3528.93,349.47,340.97,11.52,0000 0000 0000 0000 000000
2015-07-06 06:01:37,0.00,0.16,0.00,26.32,30.46,32.96,4.73,27.18,1009.92,2024.00,3389.04,3247.81,3528.85,349.95,341.52,11.55,0000 0000 0000 0000 000000
2015-07-06 06:06:38,0.01,0.16,0.00,26.30,30.43,32.94,4.76,27.01,1010.22,2024.08,3389.02,3247.86,3528.79,350.60,342.41,11.58,0000 0000 0000 0000 000000
2015-07-06 06:11:40,0.09,0.17,0.00,26.30,30.41,32.89,4.69,27.11,1010.25,2024.35,3389.00,3247.34,3528.18,350.29,341.96,11.61,0000 0000 0000 0000 000000
2015-07-06 06:16:41,0.04,0.17,0.00,26.28,30.39,32.89,4.76,27.08,1010.24,2024.67,3389.00,3247.38,3528.12,350.54,342.24,11.63,0000 0000 0000 0000 000000
2015-07-06 06:21:42,0.03,0.17,0.00,26.27,30.37,32.85,4.75,26.93,1010.28,2024.89,3389.00,3247.29,3528.09,350.53,342.26,11.66,0000 0000 0000 0000 000000
2015-07-06 06:26:44,-0.00,0.17,0.00,26.25,30.35,32.84,4.67,26.98,1010.28,2024.96,3389.00,3247.49,3528.08,350.08,341.76,11.69,0000 0000 0000 0000 000000
2015-07-06 06:31:45,0.01,0.17,0.00,26.24,30.32,32.78,4.70,27.02,1010.42,2024.99,3389.00,3247.26,3528.03,350.65,342.47,11.72,0000 0000 0000 0000 000000
2015-07-06 06:36:46,-0.01,0.17,0.00,26.23,30.30,32.77,4.68,26.93,1010.70,2024.99,3389.00,3247.32,3528.02,350.11,342.18,11.75,0000 0000 0000 0000 000000
2015-07-06 06:41:47,0.01,0.17,0.00,26.22,30.28,32.76,4.72,27.04,1010.70,2024.99,3388.99,3247.26,3528.02,350.32,342.30,11.78,0000 0000 0000 0000 000000
2015-07-06 06:46:49,-0.00,0.17,0.00,26.21,30.26,32.71,4.64,26.88,1010.76,2025.00,3388.99,3247.55,3528.05,349.64,341.52,11.81,0000 0000 0000 0000 000000
2015-07-06 06:51:50,0.01,0.17,0.00,26.20,30.25,32.72,4.75,27.07,1010.77,2025.01,3388.99,3247.23,3528.01,350.10,341.81,11.84,0000 0000 0000 0000 000000
2015-07-06 06:56:51,-0.01,0.17,0.00,26.18,30.22,32.68,4.72,26.96,1010.78,2025.02,3388.99,3247.35,3528.01,350.16,342.27,11.87,0000 0000 0000 0000 000000
2015-07-06 07:01:52,0.02,0.17,0.00,26.16,30.20,32.69,4.63,26.88,1010.91,2025.10,3388.99,3247.49,3528.01,349.91,342.04,11.90,0000 0000 0000 0000 000000
2015-07-06 07:06:54,0.03,0.17,0.00,26.13,30.19,32.68,4.77,26.91,1010.95,2025.32,3388.99,3247.62,3528.00,349.97,342.08,11.93,0000 0000 0000 0000 000000
2015-07-06 07:11:55,0.05,0.17,0.00,26.12,30.16,32.64,4.73,27.11,1011.20,2025.69,3388.99,3247.68,3528.00,349.99,342.39,11.96,0000 0000 0000 0000 000000
2015-07-06 07:16:56,0.02,0.17,0.00,26.10,30.15,32.63,4.72,27.19,1011.24,2025.95,3388.99,3247.83,3528.04,349.76,342.15,11.99,0000 0000 0000 0000 000000
2015-07-06 07:21:58,0.00,0.17,0.00,26.06,30.12,32.59,4.67,27.00,1011.32,2025.96,3388.99,3247.79,3528.01,350.32,342.73,12.02,0000 0000 0000 0000 000000
2015-07-06 07:26:59,-0.01,0.17,0.00,26.04,30.11,32.60,4.68,26.88,1011.60,2025.98,3388.99,3247.96,3528.06,350.25,342.69,12.04,0000 0000 0000 0000 000000
2015-07-06 07:32:00,0.00,0.17,0.00,26.01,30.09,32.58,4.67,27.01,1011.39,2025.99,3388.99,3247.96,3528.04,349.87,342.31,12.07,0000 0000 0000 0000 000000
2015-07-06 07:37:02,0.00,0.17,0.00,25.98,30.07,32.58,4.75,27.13,1011.49,2025.99,3388.99,3247.92,3528.02,350.03,342.41,12.10,0000 0000 0000 0000 000000
2015-07-06 07:42:03,0.00,0.17,0.00,25.96,30.05,32.56,4.75,27.05,1011.67,2025.99,3388.99,3247.96,3528.03,350.08,342.61,12.13,0000 0000 0000 0000 000000
2015-07-06 07:47:04,0.01,0.17,0.00,25.93,30.02,32.55,4.79,26.94,1011.73,2026.02,3388.99,3247.98,3528.09,349.96,342.37,12.16,0000 0000 0000 0000 000000
2015-07-06 07:52:06,0.00,0.17,0.00,25.90,30.00,32.55,4.67,26.88,1011.74,2026.02,3388.99,3247.98,3528.03,350.77,343.42,12.19,0000 0000 0000 0000 000000
2015-07-06 07:57:07,0.02,0.17,0.00,25.87,29.98,32.53,4.63,26.88,1011.71,2026.15,3388.99,3247.99,3528.08,349.38,342.02,12.22,0000 0000 0000 0000 000000
2015-07-06 08:02:09,0.03,0.17,0.00,25.84,29.96,32.49,4.73,27.06,1011.57,2026.39,3388.99,3247.99,3528.11,349.93,342.75,12.25,0000 0000 0000 0000 000000
2015-07-06 08:07:10,0.05,0.18,0.00,25.81,29.94,32.50,4.74,26.98,1011.67,2026.71,3388.99,3247.99,3528.14,350.16,342.95,12.28,0000 0000 0000 0000 000000
2015-07-06 08:12:11,0.02,0.18,0.00,25.78,29.91,32.46,4.71,26.99,1011.60,2026.95,3389.00,3247.99,3528.38,350.05,342.71,12.31,0000 0000 0000 0000 000000
2015-07-06 08:17:12,0.01,0.18,0.00,25.75,29.89,32.44,4.77,27.18,1011.65,2026.98,3389.00,3247.99,3528.13,350.22,342.80,12.34,0000 0000 0000 0000 000000
2015-07-06 08:22:14,0.00,0.18,0.00,25.72,29.86,32.41,4.72,27.05,1011.73,2026.99,3389.00,3247.99,3528.07,349.62,342.44,12.37,0000 0000 0000 0000 000000
2015-07-06 08:27:15,-0.00,0.18,0.00,25.69,29.84,32.37,4.71,27.08,1011.74,2026.99,3389.00,3247.99,3528.27,350.37,343.27,12.40,0000 0000 0000 0000 000000
2015-07-06 08:32:16,-0.00,0.18,0.00,25.66,29.81,32.36,4.67,26.93,1012.02,2027.00,3389.00,3247.99,3528.67,349.70,342.68,12.43,0000 0000 0000 0000 000000
2015-07-06 08:37:18,0.00,0.18,0.00,25.64,29.79,32.33,4.79,27.01,1012.22,2027.01,3389.00,3247.99,3528.57,350.19,343.34,12.45,0000 0000 0000 0000 000000
2015-07-06 08:42:19,0.02,0.18,0.00,25.62,29.77,32.29,4.75,26.90,1012.25,2027.04,3389.00,3247.99,3528.20,350.15,343.31,12.48,0000 0000 0000 0000 000000
2015-07-06 08:47:20,0.05,0.18,0.00,25.59,29.75,32.28,4.70,26.92,1012.48,2027.30,3389.02,3248.01,3528.68,349.82,342.98,12.51,0000 0000 0000 0000 000000
2015-07-06 08:52:21,0.04,0.18,0.00,25.57,29.72,32.25,4.79,26.80,1012.68,2027.68,3389.04,3248.03,3528.92,350.60,343.77,12.54,0000 0000 0000 0000 000000
2015-07-06 08:57:23,0.01,0.18,0.00,25.55,29.70,32.23,4.71,26.92,1012.61,2027.88,3389.04,3248.09,3528.96,349.99,343.47,12.57,0000 0000 0000 0000 000000
2015-07-06 09:02:24,-0.03,0.18,0.00,25.52,29.68,32.23,4.71,26.93,1012.42,2027.97,3389.28,3248.58,3528.99,349.84,343.28,12.60,0000 0000 0000 0000 000000
2015-07-06 09:07:25,-0.01,0.18,0.00,25.50,29.65,32.20,4.68,26.96,1012.23,2027.99,3389.50,3248.85,3528.99,350.01,343.30,12.63,0000 0000 0000 0000 000000
2015-07-06 09:12:27,-0.01,0.18,0.00,25.47,29.62,32.18,4.80,27.05,1012.19,2027.99,3389.94,3248.98,3529.02,350.92,344.08,12.66,0000 0000 0000 0000 000000
2015-07-06 09:17:28,0.00,0.18,0.00,25.45,29.60,32.15,4.68,27.11,1012.05,2027.99,3389.93,3248.99,3529.04,349.81,343.08,12.69,0000 0000 0000 0000 000000
2015-07-06 09:22:29,0.00,0.18,0.00,25.42,29.57,32.12,4.75,27.27,1012.20,2028.00,3389.98,3248.99,3529.19,349.92,343.09,12.72,0000 0000 0000 0000 000000
2015-07-06 09:27:30,-0.00,0.18,0.00,25.40,29.55,32.10,4.74,27.10,1012.49,2028.07,3389.99,3249.03,3529.79,350.00,343.49,12.75,0000 0000 0000 0000 000000
2015-07-06 09:32:31,0.03,0.18,0.00,25.37,29.52,32.07,4.76,27.01,1012.76,2028.27,3390.00,3249.07,3529.97,350.33,343.80,12.78,0000 0000 0000 0000 000000
2015-07-06 09:37:33,0.05,0.18,0.00,25.35,29.50,32.04,4.70,26.98,1013.05,2028.63,3390.00,3249.29,3529.99,349.75,343.46,12.81,0000 0000 0000 0000 000000
2015-07-06 09:42:34,0.01,0.18,0.00,25.32,29.47,32.01,4.73,26.88,1013.19,2028.95,3390.11,3249.83,3529.99,349.97,343.79,12.84,0000 0000 0000 0000 000000
2015-07-06 09:47:35,-0.01,0.18,0.00,25.30,29.45,32.01,4.75,26.89,1013.20,2028.98,3390.30,3249.96,3530.02,350.11,343.91,12.86,0000 0000 0000 0000 000000
2015-07-06 09:52:36,-0.01,0.18,0.00,25.28,29.42,31.97,4.73,26.91,1013.20,2028.99,3390.77,3249.99,3530.13,349.69,343.65,12.89,0000 0000 0000 0000 000000
2015-07-06 09:57:37,-0.01,0.18,0.00,25.26,29.40,31.96,4.72,27.03,1013.20,2028.99,3390.95,3250.00,3530.54,349.85,343.97,12.92,0000 0000 0000 0000 000000
2015-07-06 10:02:39,-0.00,0.18,0.00,25.24,29.37,31.94,4.76,27.07,1013.13,2028.99,3390.98,3250.01,3530.88,350.31,344.37,12.95,0000 0000 0000 0000 000000
2015-07-06 10:07:40,0.01,0.18,0.00,25.21,29.35,31.90,4.77,27.07,1012.88,2029.04,3390.99,3250.08,3530.98,350.15,343.89,12.98,0000 0000 0000 0000 000000
2015-07-06 10:12:42,0.00,0.18,0.00,25.19,29.32,31.87,4.72,26.94,1013.15,2029.14,3390.99,3250.36,3530.99,350.18,344.19,13.01,0000 0000 0000 0000 000000
2015-07-06 10:17:43,0.03,0.18,0.00,25.17,29.30,31.85,4.69,26.89,1013.25,2029.46,3390.99,3250.77,3530.99,349.60,343.63,13.04,0000 0000 0000 0000 000000
2015-07-06 10:22:44,0.05,0.18,0.00,25.16,29.27,31.81,4.74,26.90,1013.57,2029.81,3390.99,3250.91,3531.00,350.28,344.52,13.07,0000 0000 0000 0000 000000
2015-07-06 10:27:45,0.01,0.18,0.00,25.15,29.25,31.80,4.73,26.79,1013.70,2029.97,3391.01,3250.99,3531.16,350.39,344.52,13.10,0000 0000 0000 0000 000000
2015-07-06 10:32:47,-0.01,0.18,0.00,25.13,29.22,31.76,4.80,26.82,1013.70,2029.99,3391.02,3250.99,3531.41,349.97,344.32,13.13,0000 0000 0000 0000 000000
2015-07-06 10:37:48,-0.01,0.18,0.00,25.11,29.20,31.73,4.77,26.87,1013.70,2029.99,3391.06,3251.00,3531.77,350.29,344.29,13.16,0000 0000 0000 0000 000000
2015-07-06 10:42:49,-0.01,0.18,0.00,25.08,29.18,31.73,4.75,26.90,1013.69,2029.99,3391.14,3251.02,3531.90,349.96,344.04,13.19,0000 0000 0000 0000 000000
2015-07-06 10:47:50,-0.01,0.18,0.00,25.06,29.16,31.70,4.74,26.73,1013.70,2030.00,3391.40,3251.09,3531.97,350.05,344.43,13.22,0000 0000 0000 0000 000000
2015-07-06 10:52:51,-0.02,0.18,0.00,25.04,29.13,31.67,4.77,26.79,1013.71,2030.02,3391.92,3251.48,3531.99,350.48,344.81,13.24,0000 0000 0000 0000 000000
2015-07-06 10:57:53,0.00,0.18,0.00,25.02,29.11,31.65,4.70,26.86,1013.69,2030.15,3391.97,3251.84,3531.99,350.16,344.45,13.27,0000 0000 0000 0000 000000
2015-07-06 11:02:54,0.08,0.18,0.00,25.01,29.09,31.63,4.74,27.02,1013.69,2030.67,3391.99,3251.98,3532.03,349.94,344.29,13.30,0000 0000 0000 0000 000000
2015-07-06 11:07:55,0.01,0.18,0.00,24.99,29.06,31.61,4.72,26.90,1013.78,2030.90,3391.99,3251.99,3532.21,350.15,344.64,13.33,0000 0000 0000 0000 000000
2015-07-06 11:12:57,-0.01,0.19,0.00,24.97,29.04,31.57,4.74,26.96,1014.14,2030.96,3392.00,3252.00,3532.72,349.97,344.52,13.36,0000 0000 0000 0000 000000
2015-07-06 11:17:58,0.00,0.18,0.00,24.95,29.02,31.54,4.66,26.96,1014.17,2030.99,3392.05,3252.01,3532.95,349.44,344.07,13.39,0000 0000 0000 0000 000000
2015-07-06 11:22:59,-0.01,0.18,0.00,24.92,29.00,31.53,4.63,26.79,1014.16,2030.99,3392.15,3252.10,3532.99,350.09,344.70,13.42,0000 0000 0000 0000 000000
2015-07-06 11:28:00,-0.01,0.18,0.00,24.90,28.97,31.53,4.67,26.83,1014.17,2030.99,3392.27,3252.25,3532.99,349.50,344.22,13.45,0000 0000 0000 0000 000000
2015-07-06 11:33:02,-0.03,0.18,0.00,24.88,28.95,31.50,4.76,26.76,1014.40,2031.02,3392.60,3252.70,3532.99,350.00,344.69,13.48,0000 0000 0000 0000 000000
2015-07-06 11:38:03,0.00,0.18,0.00,24.86,28.93,31.49,4.65,26.79,1014.66,2031.05,3392.73,3252.94,3533.01,349.37,344.65,13.51,0000 0000 0000 0000 000000
2015-07-06 11:43:04,0.02,0.18,0.00,24.85,28.91,31.45,4.71,26.73,1014.69,2031.12,3392.43,3252.92,3533.00,349.67,344.55,13.54,0000 0000 0000 0000 000000
2015-07-06 11:48:06,0.04,0.18,0.00,24.86,28.88,31.43,4.79,26.70,1014.80,2031.41,3392.87,3252.98,3533.02,350.22,345.01,13.57,0000 0000 0000 0000 000000
2015-07-06 11:53:07,0.05,0.19,0.00,24.87,28.86,31.38,4.72,26.75,1014.78,2031.77,3392.95,3252.99,3533.14,349.61,344.30,13.60,0000 0000 0000 0000 000000
2015-07-06 11:58:08,-0.00,0.19,0.00,24.87,28.84,31.39,4.79,26.83,1014.71,2031.96,3392.99,3253.00,3533.60,350.58,345.36,13.63,0000 0000 0000 0000 000000
2015-07-06 12:03:10,-0.00,0.19,0.00,24.87,28.82,31.35,4.76,26.85,1014.74,2031.98,3392.99,3253.01,3533.91,349.88,344.80,13.65,0000 0000 0000 0000 000000
2015-07-06 12:08:11,0.00,0.19,0.00,24.85,28.80,31.37,4.70,26.73,1014.69,2031.99,3392.99,3253.05,3533.98,350.07,344.85,13.68,0000 0000 0000 0000 000000
2015-07-06 12:13:12,-0.02,0.19,0.00,24.85,28.78,31.33,4.71,26.74,1014.70,2031.99,3392.99,3253.43,3533.99,350.11,344.89,13.71,0000 0000 0000 0000 000000
2015-07-06 12:18:13,-0.01,0.19,0.00,24.84,28.76,31.30,4.68,26.73,1014.83,2031.99,3393.01,3253.80,3533.99,349.85,344.60,13.74,0000 0000 0000 0000 000000
2015-07-06 12:23:15,-0.00,0.19,0.00,24.82,28.74,31.27,4.73,26.69,1015.12,2032.00,3393.03,3253.94,3533.99,349.82,344.73,13.77,0000 0000 0000 0000 000000
2015-07-06 12:28:16,0.00,0.19,0.00,24.82,28.72,31.26,4.76,26.63,1015.22,2032.02,3393.04,3253.97,3534.01,349.98,344.94,13.80,0000 0000 0000 0000 000000
2015-07-06 12:33:18,0.00,0.19,0.00,24.81,28.70,31.26,4.75,26.73,1015.50,2032.03,3393.03,3253.98,3534.01,350.14,345.20,13.83,0000 0000 0000 0000 000000
2015-07-06 12:38:19,0.00,0.19,0.00,24.80,28.68,31.23,4.67,26.74,1015.51,2032.07,3393.07,3253.99,3534.04,350.10,345.28,13.86,0000 0000 0000 0000 000000
2015-07-06 12:43:20,0.01,0.19,0.00,24.79,28.66,31.22,4.76,26.77,1015.24,2032.15,3393.23,3253.99,3534.17,349.78,344.92,13.89,0000 0000 0000 0000 000000
2015-07-06 12:48:21,0.05,0.19,0.00,24.78,28.65,31.18,4.75,26.79,1015.17,2032.64,3393.71,3254.00,3534.74,350.06,345.18,13.92,0000 0000 0000 0000 000000
2015-07-06 12:53:22,0.01,0.19,0.00,24.77,28.63,31.18,4.74,26.88,1015.17,2032.84,3393.91,3254.03,3534.95,350.00,345.17,13.95,0000 0000 0000 0000 000000
2015-07-06 12:58:24,0.01,0.19,0.00,24.77,28.61,31.17,4.79,26.73,1015.49,2032.94,3393.97,3254.07,3534.98,350.11,345.48,13.98,0000 0000 0000 0000 000000